Location: Central Falls
(41.8900°N, 71.3929°W)
Time: 14:35:48
(UTC+00:00)

Vanguard 1 - Pass Details

Date: 04 December 2023
Orbit: 653 x 3826 km, 34.3° (Epoch: 24 February)

Event Time Altitude Azimuth Distance (km) Brightness Sun altitude
Rises 01:11:19 0° 261° (W) 6,527 15.0 -43.3°
Reaches altitude 10° 01:15:03 10° 259° (W) 5,836 14.5 -44.0°
Maximum altitude 01:35:03 70° 181° (S) 3,925 12.7 -47.6°
Enters shadow 01:36:23 69° 165° (SSE) 3,957 12.7 -47.8°
Drops below altitude 10° 01:57:47 10° 104° (ESE) 6,496 - -51.7°
Sets 02:02:15 0° 103° (ESE) 7,258 - -52.5°
